Details From PAOT - KOTZEBUE Ralph Wein Mem
To PAIW - WALES
Flight Number -
Tags generated
Created
Modified
Stats Distance 154 nm / 284 km
Max Altitude 12,400 ft / 3,780 m
Waypoints 4
Social Downloads 0
Likes 0
Share VATSIM

Download

Looking for another format? Having issues loading an existing format? Contact us
Advertisement - Login to hide

Notes

Basic altitude profile: - Ascent Rate: 2500ft/min - Ascent Speed: 250kts - Cruise Altitude: 35000ft - Cruise Speed: 420kts - Descent Rate: 1500ft/min - Descent Speed: 250kts Options: - Use NATs: yes - Use PACOTS: yes - Use low airways: yes - Use high airways: yes

Route

PAOT BUGYE V401 SHH PAIW

ID Type Via Altitude Latitude Longitude Leg Dist Tot Dist Heading (true) Name
O PAOT APT - 0 ft / 0 m 66.88518˚ -162.59705˚ - 0 nm - KOTZEBUE Ralph Wein Mem
BUGYE FIX - 4,800 ft / 1,463 m 66.78905˚ -163.12304˚ 13 nm 13 nm 245° / 245° -
SHH NDB V401 (AWY-LO) 12,400 ft / 3,780 m 66.25808˚ -166.05239˚ 76 nm 90 nm 247° / 244° SHISHMAREF NDB
O PAIW APT - 0 ft / 0 m 65.62259˚ -168.09494˚ 62 nm 153 nm 234° / 232° WALES

Altitude Profile

Advertisement - Login to hide

PAOT

Details ICAO PAOT (OTZ)
Name KOTZEBUE Ralph Wein Mem
Region USA (Alaska)
Timezone America/Nome (UTC-8.0)
Stats Elevation 14 ft / 4 m (AMSL)
Location 66.885180° -162.597051°
Runways 3
Magnetic Variation 11.352° E

METAR

PAOT 270753Z 29011KT 9SM OVC003 00/M01 A2982

Decode

TAF

PAOT 270541Z 2706/2806 28010KT P6SM BKN003 FM270800 24010KT 2SM BR BKN003

Decode

Departure Runways

ID Width Length Bearing (true) Bearing (mag) Surface Threshold Offset Overrun Length
08 150 ft / 46 m 5,878 ft / 1,792 m 101.79° 90.44° Asphalt 0 ft / 0 m 0 ft / 0 m
09 151 ft / 46 m 5,906 ft / 1,800 m 101.79° 90.44° Asphalt 0 ft / 0 m 0 ft / 0 m
18 89 ft / 27 m 3,880 ft / 1,183 m 193.90° 182.55° Gravel 0 ft / 0 m 0 ft / 0 m
26 150 ft / 46 m 5,878 ft / 1,792 m 281.83° 270.48° Asphalt 0 ft / 0 m 0 ft / 0 m
27 151 ft / 46 m 5,906 ft / 1,800 m 281.83° 270.48° Asphalt 0 ft / 0 m 0 ft / 0 m
36 89 ft / 27 m 3,880 ft / 1,183 m 13.89° 2.54° Gravel 0 ft / 0 m 0 ft / 0 m

PAIW

Details ICAO PAIW (WAA)
Name WALES
Region USA (Alaska)
Timezone America/Nome (UTC-8.0)
Stats Elevation 22 ft / 7 m (AMSL)
Location 65.622585° -168.094939°
Runways 1
Magnetic Variation 8.621° E

METAR

PAIW 270756Z AUTO 34005KT 5SM -SN BR OVC015 M01/M02 A2990 RMK AO2 UPB06E40SNE06B40 SLP126 P0000 T10061022 FZRANO

Decode

TAF

Not found

Destination Runways

ID Width Length Bearing (true) Bearing (mag) Surface Threshold Offset Overrun Length
18 75 ft / 23 m 3,990 ft / 1,216 m 188.49° 179.87° Gravel 0 ft / 0 m 300 ft / 91 m
36 75 ft / 23 m 3,990 ft / 1,216 m 8.49° 359.87° Gravel 0 ft / 0 m 300 ft / 91 m